[[{"header":{"parameterUnit":"m.s-1","parameterCategory":1,"la1":30.2991,"la2":30.254,"lo1":-89.0895,"lo2":-89.0444,"dy":0.0017,"dx":0.0017,"nx":28,"ny":28,"refTime":"2024-05-06T21:00:00:Z","depth":0,"parameterNumber":2,"parameterNumberName":"U-component_of_WINDS"},"data":[0,0,0,0,0,0,0,0,0,0,0,0,0,0,0,0,0,0,0,0,0,0,0,0,0,0,0,0,0,0,0,0,0,0,0,0,0,0,0,0,0,0,0,0,0,0,0,0,0,0,0,0,0,0,0,0,0,0,-0.7724,-0.7725,0,-0.7804,-0.7804,-0.7805,-0.7819,-0.7819,-0.7818,-0.7817,-0.7904,-0.7907,-0.791,0,0,0,0,0,0,0,0,0,0,0,0,0,-0.759,-0.7592,-0.7724,-0.7725,-0.7726,-0.7803,-0.7805,-0.7806,-0.782,-0.7819,-0.7818,-0.7817,-0.7903,-0.7907,-0.791,0,0,0,0,0,0,0,0,0,0,0,0,0,-0.7657,-0.7593,-0.7724,-0.7742,-0.7744,-0.7803,-0.7805,-0.7806,-0.782,-0.7819,-0.7818,-0.7817,-0.7902,-0.7906,-0.7911,-0.7959,0,0,-0.7924,-0.7926,0,0,0,0,0,0,0,0,-0.7653,-0.7662,-0.7738,-0.7741,-0.7744,-0.78,-0.7789,-0.7857,-0.782,-0.7791,-0.7817,-0.7816,-0.7871,-0.7878,-0.7895,-0.7963,-0.7966,-0.7925,-0.7927,-0.7929,-0.7931,0,0,0,0,0,0,0,-0.7648,-0.7659,-0.7756,-0.774,-0.7743,-0.7748,-0.7757,-0.7802,-0.7836,-0.7794,-0.7795,-0.7804,-0.7872,-0.7891,-0.7897,-0.7968,-0.7925,-0.7929,-0.7931,-0.7933,-0.8079,-0.808,0,0,0,0,0,0,-0.764,-0.7655,-0.7753,-0.7758,-0.7695,-0.7752,-0.7761,-0.7783,-0.7836,-0.7842,-0.7805,-0.7804,-0.7884,-0.7892,-0.79,-0.796,-0.7929,-0.7933,-0.7936,-0.8078,-0.808,-0.8081,0,0,0,0,0,0,-0.7637,-0.7648,-0.775,-0.7707,-0.772,-0.7755,-0.778,-0.7785,-0.7804,-0.7844,-0.785,-0.7817,-0.7883,-0.7894,-0.7944,-0.7963,-0.7935,-0.7939,-0.8077,-0.8079,-0.808,-0.8078,0,0,0,0,0,0,-0.7633,-0.7647,-0.7664,-0.7707,-0.7722,-0.779,-0.7781,-0.7788,-0.7811,-0.7811,-0.7857,-0.7864,-0.7883,-0.7937,-0.7948,-0.7969,-0.7943,-0.8075,-0.8077,-0.808,-0.8077,-0.808,-0.8083,0,0,0,0,0,-0.7628,-0.7662,-0.7665,-0.7677,-0.7744,-0.7791,-0.78,-0.782,-0.7812,-0.7831,-0.7856,-0.7862,-0.7959,-0.7942,-0.7955,-0.7977,-0.8074,-0.8077,-0.8079,-0.8076,-0.8079,-0.8083,0,0,0,0,0,0,-0.7622,-0.7667,-0.7672,-0.772,-0.7751,-0.7793,-0.7817,-0.7824,-0.7859,-0.7858,-0.7884,-0.7894,-0.7942,-0.7965,-0.7945,-0.8026,-0.8016,-0.8022,-0.8009,-0.8013,-0.8016,-0.8009,-0.7947,0,0,0,0,0,-0.7626,-0.7659,-0.7698,-0.7736,-0.7752,-0.7781,-0.7803,-0.7816,-0.785,-0.7864,-0.7893,-0.7928,-0.7967,-0.7991,-0.8029,-0.8081,-0.8092,-0.8102,-0.8105,-0.8107,-0.8112,-0.8141,-0.8147,-0.809,-0.809,-0.809,0,0,-0.7635,-0.7664,-0.7683,-0.7736,-0.7762,-0.7797,-0.7793,-0.783,-0.7857,-0.787,-0.7918,-0.7941,-0.7982,-0.8033,-0.8057,-0.8053,-0.813,-0.8111,-0.8112,-0.8115,-0.8145,-0.815,-0.8155,-0.8092,-0.8092,-0.8091,0,0,-0.7669,-0.7694,-0.7729,-0.7755,-0.7793,-0.7813,-0.7822,-0.7863,-0.7878,-0.7926,-0.7937,-0.7971,-0.8036,-0.8065,-0.8088,-0.8134,-0.8141,-0.8146,-0.816,-0.8189,-0.8193,-0.8197,-0.8214,-0.8219,-0.815,-0.815,-0.815,0,-0.7676,-0.7727,-0.7747,-0.7783,-0.7806,-0.7819,-0.7855,-0.788,-0.793,-0.7947,-0.7942,-0.8024,-0.8052,-0.811,-0.8121,-0.814,-0.8151,-0.814,-0.8191,-0.8195,-0.8199,-0.8215,-0.8221,-0.815,-0.815,-0.815,-0.815,0,-0.7734,-0.7769,-0.7793,-0.7838,-0.7865,-0.7901,-0.7928,-0.7953,-0.7964,-0.7985,-0.8034,-0.8069,-0.8114,-0.8129,-0.8141,-0.8189,-0.8185,-0.8185,-0.8176,-0.8204,-0.822,-0.8226,-0.8151,-0.8151,-0.815,-0.815,0,0,-0.7765,-0.7821,-0.7829,-0.785,-0.7894,-0.7923,-0.7961,-0.8003,-0.8024,-0.8059,-0.8092,-0.8147,-0.8147,-0.8173,-0.8189,-0.8214,-0.8249,-0.8212,-0.8213,-0.8217,-0.8304,-0.8303,-0.831,-0.8254,-0.8255,-0.8256,-0.8301,0,-0.7804,-0.7869,-0.7888,-0.7944,-0.7977,-0.7991,-0.8024,-0.8056,-0.8077,-0.811,-0.8134,-0.8173,-0.817,-0.8186,-0.8212,-0.8239,-0.8266,-0.8236,-0.8286,-0.8288,-0.8274,-0.8318,-0.8317,-0.8357,-0.8307,-0.8308,-0.8309,0,-0.7858,-0.7891,-0.7949,-0.7989,-0.8004,-0.8033,-0.8073,-0.8104,-0.8142,-0.8155,-0.8185,-0.8198,-0.824,-0.8229,-0.8288,-0.8267,-0.8289,-0.8306,-0.8308,-0.8313,-0.8299,-0.8324,-0.8371,-0.8376,-0.8318,-0.8318,-0.8317,0,-0.7874,-0.7934,-0.7977,-0.7994,-0.8042,-0.8062,-0.8084,-0.8119,-0.8144,-0.818,-0.8196,-0.8238,-0.826,-0.8293,-0.8318,-0.8308,-0.8375,-0.8366,-0.8389,-0.8388,-0.8402,-0.84,-0.8452,-0.8417,-0.8417,-0.8417,-0.8417,0,-0.7915,-0.795,-0.7984,-0.8011,-0.8051,-0.8074,-0.8114,-0.8136,-0.8168,-0.82,-0.8216,-0.8246,-0.8278,-0.8313,-0.8333,-0.8379,-0.839,-0.8403,-0.8408,-0.8401,-0.8399,-0.8415,-0.8413,-0.8418,-0.8418,-0.8418,-0.8417,0,-0.794,-0.7964,-0.8011,-0.8052,-0.8064,-0.8092,-0.8128,-0.8155,-0.8177,-0.8217,-0.8228,-0.8263,-0.8305,-0.8334,-0.8389,-0.8402,-0.8452,-0.8457,-0.8439,-0.8441,-0.8462,-0.8459,-0.8525,-0.8535,-0.8494,-0.8494,-0.8494,0,-0.7964,-0.7991,-0.8035,-0.8056,-0.8077,-0.8112,-0.8136,-0.8161,-0.8186,-0.823,-0.8252,-0.8295,-0.833,-0.8398,-0.8429,-0.8472,-0.8477,-0.8497,-0.8484,-0.8476,-0.8477,-0.8475,-0.8478,-0.8499,-0.85,-0.85,-0.85,0,-0.8004,-0.8015,-0.8048,-0.8086,-0.8114,-0.8145,-0.8177,-0.8195,-0.8225,-0.8253,-0.8295,-0.8322,-0.8378,-0.8421,-0.8466,-0.849,-0.8501,-0.8504,-0.8512,-0.8505,-0.8493,-0.8499,-0.8444,-0.8502,-0.8502,-0.8502,-0.8502,-0.8502,-0.803,-0.8054,-0.8088,-0.8125,-0.8151,-0.818,-0.8207,-0.8232,-0.8267,-0.8312,-0.8326,-0.837,-0.8408,-0.8469,-0.8494,-0.8531,-0.8529,-0.854,-0.8543,-0.8545,-0.8544,-0.8487,-0.8539,-0.8539,-0.8539,-0.8539,-0.8539,0,-0.807,-0.8093,-0.8126,-0.8169,-0.8198,-0.8204,-0.824,-0.8265,-0.8302,-0.8336,-0.837,-0.8419,-0.8461,-0.8496,-0.854,-0.8562,-0.8568,-0.8573,-0.8571,-0.8577,-0.8544,-0.8532,-0.8567,-0.8567,-0.8567,-0.8567,-0.8567,-0.8567,-0.8095,-0.8136,-0.8151,-0.8207,-0.823,-0.8271,-0.8291,-0.8319,-0.8346,-0.8399,-0.8433,-0.8455,-0.849,-0.8536,-0.8575,-0.8585,-0.86,-0.8603,-0.8614,-0.8582,-0.8579,-0.8576,-0.8566,-0.8607,-0.8607,-0.8644,-0.8644,-0.8645]},{"header":{"parameterUnit":"m.s-1","parameterCategory":1,"la1":30.2991,"la2":30.254,"lo1":-89.0895,"lo2":-89.0444,"dy":0.0017,"dx":0.0017,"nx":28,"ny":28,"refTime":"2024-05-06T21:00:00:Z","depth":0,"parameterNumber":3,"parameterNumberName":"V-component_of_WINDS"},"data":[0,0,0,0,0,0,0,0,0,0,0,0,0,0,0,0,0,0,0,0,0,0,0,0,0,0,0,0,0,0,0,0,0,0,0,0,0,0,0,0,0,0,0,0,0,0,0,0,0,0,0,0,0,0,0,0,0,0,5.6469,5.647,0,5.653,5.653,5.6531,5.6585,5.6585,5.6586,5.6586,5.6644,5.6645,5.6646,0,0,0,0,0,0,0,0,0,0,0,0,0,5.6395,5.6396,5.6469,5.647,5.647,5.653,5.653,5.6531,5.6585,5.6585,5.6586,5.6587,5.6644,5.6645,5.6646,0,0,0,0,0,0,0,0,0,0,0,0,0,5.6439,5.6397,5.6469,5.6504,5.6508,5.6529,5.653,5.6531,5.6584,5.6585,5.6586,5.6587,5.6643,5.6645,5.6646,5.6635,0,0,5.665,5.6651,0,0,0,0,0,0,0,0,5.6436,5.6441,5.6498,5.6502,5.6506,5.6551,5.6526,5.6566,5.6584,5.6555,5.6587,5.6588,5.6612,5.6616,5.6625,5.6638,5.6641,5.665,5.6651,5.6652,5.6652,0,0,0,0,0,0,0,5.6433,5.6439,5.6493,5.6499,5.6504,5.6516,5.6523,5.6533,5.6577,5.6558,5.6562,5.6569,5.6614,5.6623,5.6627,5.6641,5.665,5.6652,5.6652,5.6653,5.6651,5.665,0,0,0,0,0,0,5.6425,5.6436,5.6491,5.6495,5.6473,5.6516,5.6525,5.6535,5.6577,5.6585,5.6568,5.6571,5.6621,5.6625,5.6629,5.6621,5.6652,5.6653,5.6654,5.6652,5.6651,5.665,0,0,0,0,0,0,5.6423,5.6429,5.6488,5.6467,5.6475,5.6517,5.6528,5.6536,5.6546,5.6585,5.6592,5.657,5.6622,5.6627,5.6634,5.6624,5.6654,5.6655,5.6653,5.6652,5.665,5.6604,0,0,0,0,0,0,5.6421,5.6429,5.6426,5.6466,5.6476,5.6494,5.6528,5.6536,5.6548,5.6553,5.6589,5.6595,5.6623,5.6632,5.6636,5.6626,5.6656,5.6654,5.6652,5.6651,5.6607,5.6601,5.6596,0,0,0,0,0,5.6418,5.6409,5.6425,5.6432,5.6474,5.6493,5.6498,5.6531,5.6547,5.6545,5.657,5.6594,5.6624,5.6632,5.6637,5.6628,5.6655,5.6653,5.6651,5.6609,5.6602,5.6597,0,0,0,0,0,0,5.6363,5.6414,5.6433,5.6437,5.6461,5.6502,5.6499,5.6523,5.6541,5.6544,5.6583,5.6591,5.6594,5.6611,5.6619,5.6621,5.6643,5.6642,5.6609,5.6603,5.6598,5.6594,5.6657,0,0,0,0,0,5.6352,5.6365,5.6408,5.6407,5.6418,5.6457,5.6466,5.649,5.6515,5.6525,5.6551,5.6573,5.6588,5.6596,5.6612,5.6609,5.6618,5.6605,5.66,5.6596,5.6594,5.6596,5.6591,5.6643,5.6643,5.6643,0,0,5.6328,5.6358,5.6363,5.6397,5.6418,5.643,5.6465,5.6475,5.6484,5.6526,5.6535,5.6555,5.6582,5.6585,5.6588,5.66,5.6582,5.6593,5.659,5.6591,5.6593,5.6588,5.6584,5.6642,5.6642,5.6642,0,0,5.6291,5.6314,5.6317,5.6338,5.6371,5.6397,5.6397,5.6435,5.6451,5.6461,5.6494,5.6504,5.6528,5.6547,5.656,5.6532,5.6555,5.6535,5.6509,5.651,5.6506,5.6502,5.6493,5.649,5.6534,5.6534,5.6534,0,5.6257,5.6277,5.6315,5.6325,5.6339,5.638,5.6383,5.64,5.6435,5.6443,5.6457,5.649,5.651,5.6519,5.6513,5.6521,5.6523,5.6532,5.6504,5.6501,5.6498,5.649,5.6486,5.6531,5.6531,5.6532,5.6532,0,5.6234,5.6248,5.6246,5.6282,5.6295,5.6301,5.6339,5.6348,5.6371,5.6395,5.6406,5.6433,5.6455,5.6459,5.648,5.6471,5.6478,5.6497,5.652,5.649,5.6483,5.648,5.6528,5.6529,5.6529,5.653,0,0,5.6163,5.6222,5.622,5.6238,5.6277,5.6288,5.6295,5.632,5.6327,5.635,5.6357,5.6378,5.6397,5.6411,5.6435,5.6435,5.6413,5.6455,5.6456,5.6447,5.6406,5.6392,5.6387,5.6429,5.6428,5.6428,5.6404,0,5.6134,5.6152,5.6187,5.6194,5.6208,5.6247,5.6254,5.6278,5.6302,5.6315,5.634,5.6355,5.6378,5.6387,5.6389,5.6415,5.6405,5.6417,5.6436,5.6436,5.6428,5.6384,5.6368,5.6344,5.6401,5.6401,5.64,0,5.6101,5.6125,5.6133,5.6174,5.6181,5.6187,5.6213,5.6225,5.6254,5.6271,5.6288,5.6315,5.6324,5.6345,5.636,5.6367,5.6376,5.639,5.639,5.6393,5.6416,5.6386,5.6337,5.6334,5.6396,5.6396,5.6397,0,5.605,5.6083,5.6094,5.6107,5.6154,5.6158,5.6177,5.6207,5.622,5.6241,5.625,5.6272,5.6284,5.63,5.6332,5.6344,5.6342,5.6366,5.6356,5.6356,5.6354,5.6354,5.6307,5.6359,5.6359,5.6359,5.6359,0,5.6014,5.6018,5.6072,5.6078,5.6084,5.6124,5.6128,5.6151,5.6177,5.6188,5.6223,5.6232,5.6273,5.6287,5.6311,5.632,5.6325,5.6338,5.6345,5.6336,5.6334,5.6343,5.6345,5.6358,5.6359,5.6359,5.6359,0,5.5958,5.5995,5.6009,5.6053,5.6064,5.6067,5.6104,5.6111,5.6137,5.615,5.6156,5.6195,5.6213,5.6247,5.6273,5.629,5.6294,5.6305,5.6285,5.6289,5.6278,5.6279,5.6235,5.6232,5.6285,5.6284,5.6284,0,5.5933,5.5938,5.5983,5.5994,5.6013,5.603,5.6044,5.6083,5.6096,5.613,5.6133,5.6154,5.6173,5.62,5.623,5.6251,5.6264,5.6247,5.6267,5.6258,5.6265,5.6264,5.6265,5.6242,5.6242,5.6241,5.6241,0,5.5885,5.5903,5.5923,5.595,5.5967,5.5989,5.6013,5.6019,5.6063,5.6076,5.6096,5.6111,5.614,5.6161,5.6186,5.6205,5.623,5.6234,5.6233,5.6224,5.6213,5.622,5.6273,5.6235,5.6236,5.6236,5.6236,5.6236,5.5845,5.5851,5.5886,5.5907,5.593,5.5952,5.5961,5.5989,5.6007,5.6036,5.6057,5.6075,5.6104,5.6142,5.6159,5.6174,5.6185,5.6184,5.6183,5.6183,5.6179,5.621,5.6178,5.6178,5.6179,5.6179,5.6179,0,5.58,5.5824,5.5843,5.5877,5.5894,5.5918,5.5946,5.5958,5.5975,5.6001,5.602,5.6044,5.6064,5.6097,5.612,5.6125,5.6137,5.613,5.613,5.6134,5.6167,5.6166,5.612,5.612,5.612,5.612,5.612,5.612,5.5778,5.5792,5.5814,5.5839,5.5863,5.5883,5.5897,5.5918,5.5939,5.5964,5.5982,5.6004,5.6033,5.6059,5.6078,5.6087,5.6095,5.6084,5.6096,5.6126,5.6132,5.6137,5.6137,5.6085,5.6085,5.6063,5.6062,5.6062]}]]